Tracking 26544 objects as of 9-Dec-2022
HD Live streaming from Space Station
objects crossing your sky now

MESHBED

Track MESHBED now!
10-day predictions


NORAD ID: 44806
Int'l Code: 2019-081C
Perigee: 451.3 km
Apogee: 462.0 km
Inclination: 97.4 °
Period: 93.6 minutes
Semi major axis: 6827 km
RCS: Unknown
Launch date: November 27, 2019
Source: United States (US)
Launch site: SRIHARIKOTA (SRI)
aabbcc
Your satellite tracking list
Your tracking list is empty




NASA's NSSDC Master Catalog

Two Line Element Set (TLE):
1 44806U 19081C   22342.63202663  .00045224  00000-0  11726-2 0  9998
2 44806  97.3816  47.7998 0007888 321.2836  38.7843 15.38847176168590
Source of the keplerian elements: AFSPC